Regional Weather Roundup
Issued by NWS

Home | Current Version | Previous Version | Graphics & Text | Print | Product List | Glossary On
Versions: 1 2 3 4 5 6 7 8 9 10 11 12 13 14 15 16 17 18 19 20 21 22 23 24 25 26 27 28 29 30 31 32 33 34 35 36 37 38 39 40 41 42 43 44 45 46 47 48 49 50
000
ASUS43 KBIS 211702
RWRND

NORTH DAKOTA REGIONAL WEATHER ROUNDUP
NATIONAL WEATHER SERVICE BISMARCK ND
1100 AM CST TUE FEB 21 2017

NOTE: "FAIR" INDICATES FEW OR NO CLOUDS BELOW 12,000 FEET WITH NO
SIGNIFICANT WEATHER AND/OR OBSTRUCTIONS TO VISIBILITY.


NDZ001>003-009>011-017-211800-
NORTHWEST NORTH DAKOTA

CITY           SKY/WX    TMP DP  RH WIND       PRES   REMARKS
WILLISTON      FAIR      39  32  76 SW6       29.66S
MINOT          FAIR      44  33  65 SW9       29.64S
MINOT AFB      SUNNY     39  33  79 W7        29.64S
$$

NDZ018>021-031>035-040>046-211800-
SOUTHWEST NORTH DAKOTA

CITY           SKY/WX    TMP DP  RH WIND       PRES   REMARKS
BISMARCK       FAIR      44  32  62 S3        29.70S
DICKINSON      FAIR      48  32  53 W9        29.68S
GARRISON         N/A     39  32  76 SW6       29.67R
HETTINGER ARPT MOSUNNY   57  33  40 W8        29.73S
$$

NDZ004>008-012>016-024-026-027-054-211800-
NORTHEAST NORTH DAKOTA

CITY           SKY/WX    TMP DP  RH WIND       PRES   REMARKS
GRAND FORKS    MOSUNNY   37  31  78 S6        29.67F
GRND FRKS AFB  MOSUNNY   37  35  92 SW3       29.68S
DEVILS LAKE    FAIR      37  32  82 CALM      29.66S
$$

NDZ022-023-025-028>030-036>039-047>053-211800-
SOUTHEAST NORTH DAKOTA

CITY           SKY/WX    TMP DP  RH WIND       PRES   REMARKS
FARGO          CLOUDY    41  35  79 S9        29.67F
JAMESTOWN      FAIR      43  34  70 W16       29.66R
$$




USA.gov is the U.S. government's official web portal to all federal, state and local government web resources and services.